Howell, MI

6:49 PM EST on November 18, 2017 (GMT -0500)
Livingston County

Weather History for KOZW - March, 2012

Change the Weather History Date:

Tuesday, March 13, 2012

  Actual Average Record
Temperature  
Mean Temperature 54 °F -  
Max Temperature 61 °F 39 °F 71 °F (2007)
Min Temperature 46 °F 23 °F -6 °F (2014)
Degree Days  
Heating Degree Days 12    
Growing Degree Days 4 (Base 50)    
Moisture  
Dew Point 41 °F    
Average Humidity 70    
Maximum Humidity 100    
Minimum Humidity 30    
Precipitation  
Precipitation 0.00 in - - ()
Sea Level Pressure  
Sea Level Pressure 29.95 in    
Wind  
Wind Speed 7 mph (WSW)    
Max Wind Speed 21 mph    
Max Gust Speed 29 mph    
Visibility 8 miles    
Events Rain    
Averages and records for this station are not official NWS values.
T = Trace of Precipitation, MM = Missing Value Source: NWS Daily Summary

Daily Weather History Graph

Daily Weather History Graph

Search for Another Location

Airport or City:

Trip Planner

Search our weather history database for the weather conditions in past years. The results will help you decide how hot, cold, wet, or windy it might be!

Date:

Astronomy

Mar. 13, 2012 Rise Set
Actual Time 7:50 AM EDT 7:40 PM EDT
Civil Twilight 7:22 AM EDT 8:08 PM EDT
Nautical Twilight 6:49 AM EDT 8:41 PM EDT
Astronomical Twilight 6:16 AM EDT 9:14 PM EDT
Moon 1:19 AM EDT (3/13) 10:53 AM EDT (3/13)
Length of Visible Light 12h 46m
Length of Day
11h 50m
Waning Gibbous, 66% of the Moon is Illuminated
Mar 13
Waning Gibbous
Mar 14
Last Quarter
Mar 22
New
Mar 30
First Quarter
Apr 6
Full

Hourly Weather History & Observations

Time (EDT) Temp. Windchill Dew Point Humidity Pressure Visibility Wind Dir Wind Speed Gust Speed Precip Events Conditions
12:14 AM 52.7 °F - 50.4 °F 92% 29.85 in 7.0 mi Calm Calm - N/A Rain Rain
12:35 AM 52.7 °F - 50.5 °F 92% 29.85 in 10.0 mi Calm Calm - N/A   Overcast
12:54 AM 52.0 °F - 50.0 °F 93% 29.86 in 10.0 mi SSW 4.6 mph - N/A   Overcast
12:59 AM 52.0 °F - 50.4 °F 94% 29.85 in 7.0 mi SSW 3.5 mph - N/A   Overcast
1:45 AM 50.0 °F - 50.0 °F 100% 29.86 in 7.0 mi SW 3.5 mph - N/A   Mostly Cloudy
2:05 AM 51.8 °F - 50.0 °F 94% 29.86 in 7.0 mi SW 4.6 mph - N/A   Overcast
2:36 AM 50.2 °F - 48.4 °F 94% 29.87 in 7.0 mi WSW 5.8 mph - N/A   Scattered Clouds
2:54 AM 49.5 °F - 47.8 °F 94% 29.88 in 7.0 mi WSW 4.6 mph - N/A   Clear
3:14 AM 48.9 °F - 47.1 °F 93% 29.89 in 10.0 mi WSW 4.6 mph - N/A   Clear
3:35 AM 48.4 °F - 46.6 °F 93% 29.89 in 7.0 mi SW 5.8 mph - N/A   Clear
3:54 AM 47.7 °F - 46.0 °F 94% 29.89 in 7.0 mi SW 4.6 mph - N/A   Clear
4:15 AM 47.5 °F - 46.0 °F 95% 29.90 in 7.0 mi SW 4.6 mph - N/A   Clear
4:35 AM 47.3 °F - 45.7 °F 94% 29.90 in 10.0 mi SW 4.6 mph - N/A   Clear
4:54 AM 47.5 °F - 45.5 °F 93% 29.90 in 10.0 mi SW 3.5 mph - N/A   Scattered Clouds
5:15 AM 47.5 °F - 45.5 °F 93% 29.90 in 10.0 mi SW 4.6 mph - N/A   Overcast
5:34 AM 48.2 °F - 45.9 °F 92% 29.90 in 10.0 mi SW 5.8 mph - N/A   Mostly Cloudy
5:54 AM 46.9 °F - 44.8 °F 92% 29.91 in 7.0 mi SW 4.6 mph - N/A   Scattered Clouds
6:15 AM 46.8 °F - 44.6 °F 92% 29.91 in 10.0 mi SSW 5.8 mph - N/A   Clear
6:34 AM 46.6 °F - 44.6 °F 93% 29.92 in 7.0 mi SSW 4.6 mph - N/A   Clear
6:54 AM 46.4 °F 44.3 °F 44.6 °F 93% 29.93 in 7.0 mi SW 4.6 mph - N/A   Clear
7:15 AM 46.8 °F - 45.0 °F 93% 29.93 in 7.0 mi SW 6.9 mph - N/A   Clear
7:34 AM 46.4 °F 43.5 °F 44.2 °F 92% 29.94 in 7.0 mi SSW 5.8 mph - N/A   Clear
7:55 AM 46.4 °F 42.9 °F 44.8 °F 94% 29.95 in 7.0 mi SSW 6.9 mph - N/A   Clear
8:14 AM 46.6 °F - 45.0 °F 94% 29.95 in 5.0 mi SW 8.1 mph - N/A   Scattered Clouds
8:34 AM 48.2 °F - 46.0 °F 92% 29.96 in 5.0 mi SW 6.9 mph - N/A   Mostly Cloudy
8:55 AM 48.7 °F - 46.4 °F 92% 29.96 in 5.0 mi WSW 9.2 mph - N/A   Mostly Cloudy
9:14 AM 50.4 °F - 47.3 °F 89% 29.96 in 5.0 mi SW 9.2 mph - N/A   Scattered Clouds
9:35 AM 51.8 °F - 48.0 °F 87% 29.96 in 7.0 mi WSW 11.5 mph - N/A   Clear
9:54 AM 52.7 °F - 48.2 °F 85% 29.96 in 7.0 mi WSW 11.5 mph 17.3 mph N/A   Scattered Clouds
10:15 AM 52.7 °F - 47.7 °F 83% 29.98 in 7.0 mi West 11.5 mph 16.1 mph N/A   Mostly Cloudy
10:35 AM 52.7 °F - 46.8 °F 80% 29.98 in 7.0 mi West 19.6 mph 25.3 mph N/A   Overcast
10:54 AM 53.6 °F - 46.6 °F 77% 29.98 in 7.0 mi West 15.0 mph 24.2 mph N/A   Mostly Cloudy
11:15 AM 54.1 °F - 46.9 °F 77% 29.99 in 7.0 mi West 13.8 mph 20.7 mph N/A   Mostly Cloudy
11:34 AM 55.6 °F - 47.5 °F 74% 29.98 in 7.0 mi West 15.0 mph 20.7 mph N/A   Mostly Cloudy
11:54 AM 55.9 °F - 46.6 °F 71% 29.99 in 7.0 mi WSW 12.7 mph - N/A   Scattered Clouds
12:15 PM 56.5 °F - 45.5 °F 67% 29.98 in 10.0 mi WSW 16.1 mph 21.9 mph N/A   Scattered Clouds
12:34 PM 57.6 °F - 45.7 °F 65% 29.98 in 10.0 mi WSW 15.0 mph 20.7 mph N/A   Clear
12:54 PM 58.8 °F - 45.0 °F 60% 29.99 in 10.0 mi West 15.0 mph 21.9 mph N/A   Clear
1:15 PM 59.4 °F - 41.9 °F 52% 29.99 in 10.0 mi West 18.4 mph 24.2 mph N/A   Clear
1:34 PM 60.4 °F - 40.3 °F 47% 29.99 in 10.0 mi West 15.0 mph 23.0 mph N/A   Clear
1:54 PM 60.1 °F - 34.7 °F 39% 29.99 in 10.0 mi West 13.8 mph 27.6 mph N/A   Clear
2:15 PM 59.9 °F - 35.2 °F 40% 29.99 in 10.0 mi West 17.3 mph 24.2 mph N/A   Clear
2:34 PM 60.8 °F - 31.3 °F 33% 29.99 in 10.0 mi West 20.7 mph 28.8 mph N/A   Clear
2:55 PM 61.0 °F - 31.1 °F 32% 29.99 in 10.0 mi West 20.7 mph 27.6 mph N/A   Clear
3:15 PM 59.9 °F - 32.4 °F 35% 29.99 in 10.0 mi West 16.1 mph 25.3 mph N/A   Clear
3:34 PM 60.8 °F - 32.4 °F 34% 30.00 in 10.0 mi West 16.1 mph 25.3 mph N/A   Clear
3:55 PM 60.4 °F - 31.1 °F 33% 30.00 in 10.0 mi West 17.3 mph 26.5 mph N/A   Clear
4:14 PM 60.8 °F - 30.7 °F 32% 30.00 in 10.0 mi West 16.1 mph 21.9 mph N/A   Clear
4:34 PM 60.4 °F - 30.2 °F 32% 30.01 in 10.0 mi West 13.8 mph 20.7 mph N/A   Clear
4:55 PM 60.1 °F - 29.7 °F 32% 30.01 in 10.0 mi West 15.0 mph 26.5 mph N/A   Clear
5:14 PM 59.9 °F - 28.2 °F 30% 30.01 in 10.0 mi West 18.4 mph 24.2 mph N/A   Clear
5:34 PM 59.5 °F - 29.8 °F 32% 30.02 in 10.0 mi West 12.7 mph 20.7 mph N/A   Clear
5:55 PM 59.2 °F - 29.3 °F 32% 30.02 in 10.0 mi West 11.5 mph 21.9 mph N/A   Clear
6:14 PM 58.3 °F - 28.0 °F 32% 30.03 in 10.0 mi West 13.8 mph - N/A   Clear
6:55 PM 56.5 °F - 28.4 °F 34% 30.03 in 10.0 mi WSW 11.5 mph - N/A   Clear
7:14 PM 55.0 °F - 28.0 °F 35% 30.04 in 10.0 mi WSW 9.2 mph - N/A   Clear
7:35 PM 53.1 °F - 27.5 °F 37% 30.05 in 10.0 mi WSW 8.1 mph - N/A   Clear
7:55 PM 52.7 °F - 27.3 °F 38% 30.05 in 10.0 mi West 9.2 mph - N/A   Clear
8:14 PM 52.0 °F - 27.0 °F 38% 30.06 in 10.0 mi West 9.2 mph - N/A   Clear
8:35 PM 51.1 °F - 25.5 °F 37% 30.07 in 10.0 mi West 8.1 mph - N/A   Clear
8:54 PM 50.2 °F - 25.0 °F 37% 30.08 in 10.0 mi WNW 5.8 mph - N/A   Clear
9:15 PM 48.2 °F - 25.7 °F 42% 30.08 in 10.0 mi West 5.8 mph - N/A   Clear
9:34 PM 48.2 °F - 25.3 °F 41% 30.08 in 10.0 mi West 5.8 mph - N/A   Clear
9:54 PM 47.8 °F - 24.4 °F 40% 30.09 in 10.0 mi West 3.5 mph - N/A   Clear
10:15 PM 47.7 °F - 23.9 °F 39% 30.10 in 10.0 mi Calm Calm - N/A   Clear
10:34 PM 47.1 °F - 24.3 °F 41% 30.11 in 10.0 mi West 3.5 mph - N/A   Clear
10:54 PM 46.4 °F 45.2 °F 24.6 °F 42% 30.11 in 10.0 mi WSW 3.5 mph - N/A   Clear
11:15 PM 43.9 °F 42.3 °F 26.1 °F 50% 30.11 in 10.0 mi WSW 3.5 mph - N/A   Clear
11:34 PM 44.2 °F - 25.7 °F 48% 30.11 in 10.0 mi Calm Calm - N/A   Clear
11:54 PM 44.2 °F 41.8 °F 26.1 °F 49% 30.11 in 10.0 mi WSW 4.6 mph - N/A   Clear